Change the Weather History Date:

Monday, September 3, 2012

  Actual Average Record
Temperature  
Mean Temperature 65 °F 64 °F  
Max Temperature 81 °F 78 °F 102 °F (1940)
Min Temperature 48 °F 50 °F 29 °F (1902)
Degree Days  
Heating Degree Days 0 4  
Month to date heating degree days 0 11  
Since 1 July heating degree days 24 64  
Cooling Degree Days 0 3  
Month to date cooling degree days 9 9  
Year to date cooling degree days 666 504  
Growing Degree Days 14 (Base 50)    
Moisture  
Dew Point 30 °F    
Average Humidity 33    
Maximum Humidity 50    
Minimum Humidity 15    
Precipitation  
Precipitation 0.00 in 0.03 in 0.43 in (1999)
Month to date precipitation T 0.09  
Year to date precipitation 10.83 9.26  
Snow  
Snow 0.00 in 0.00 in 0.00 in (2002)
Month to date snowfall 0.0 0.0  
Since 1 July snowfall 0.0 0.0  
Since 1 September snowfall 0.0 0.0  
Snow Depth 0.00 in    
Sea Level Pressure  
Sea Level Pressure 29.90 in    
Wind  
Wind Speed 8 mph (NW)    
Max Wind Speed 23 mph    
Max Gust Speed 29 mph    
Visibility 10 miles    
Events      
T = Trace of Precipitation, MM = Missing Value Source: NWS Daily Summary

Daily Weather History Graph

Daily Weather History Graph

Search for Another Location

Airport or City:

Trip Planner

Search our weather history database for the weather conditions in past years. The results will help you decide how hot, cold, wet, or windy it might be!

Date:

Astronomy

Sep. 03, 2012 Rise Set
Actual Time 6:27 AM MDT 7:42 PM MDT
Civil Twilight 5:55 AM MDT 8:14 PM MDT
Nautical Twilight 5:16 AM MDT 8:53 PM MDT
Astronomical Twilight 4:35 AM MDT 9:34 PM MDT
Moon 8:40 PM MDT (9/3) 9:59 AM MDT (9/3)
Length of Visible Light 14h 19m
Length of Day
13h 14m
Waning Gibbous, 90% of the Moon is Illuminated
Sep 3
Waning Gibbous
Sep 8
Last Quarter
Sep 15
New
Sep 22
First Quarter
Sep 29
Full

Hourly Weather History & Observations

Time (MDT) Temp. Dew Point Humidity Pressure Visibility Wind Dir Wind Speed Gust Speed Precip Events Conditions
12:53 AM 61.0 °F 27.0 °F 27% 29.86 in 10.0 mi NNW 5.8 mph - N/A   Clear
1:53 AM 60.1 °F 28.0 °F 30% 29.86 in 10.0 mi WNW 5.8 mph - N/A   Clear
2:53 AM 55.0 °F 28.9 °F 37% 29.88 in 10.0 mi WSW 5.8 mph - N/A   Clear
3:53 AM 55.0 °F 30.0 °F 38% 29.88 in 10.0 mi Calm Calm - N/A   Clear
4:53 AM 54.0 °F 30.0 °F 40% 29.89 in 10.0 mi North 3.5 mph - N/A   Clear
5:53 AM 53.1 °F 30.0 °F 41% 29.90 in 10.0 mi NNW 4.6 mph - N/A   Clear
6:53 AM 48.9 °F 30.0 °F 48% 29.92 in 10.0 mi WNW 8.1 mph - N/A   Clear
7:53 AM 55.0 °F 30.9 °F 40% 29.93 in 10.0 mi NW 6.9 mph - N/A   Clear
8:53 AM 60.1 °F 32.0 °F 35% 29.94 in 10.0 mi NW 9.2 mph - N/A   Clear
9:53 AM 66.0 °F 32.0 °F 28% 29.94 in 10.0 mi WNW 8.1 mph - N/A   Clear
10:53 AM 69.1 °F 34.0 °F 27% 29.94 in 10.0 mi West 6.9 mph - N/A   Clear
11:53 AM 73.9 °F 35.1 °F 24% 29.92 in 10.0 mi West 8.1 mph - N/A   Clear
12:53 PM 78.1 °F 32.0 °F 19% 29.91 in 10.0 mi West 11.5 mph - N/A   Clear
1:53 PM 79.0 °F 30.9 °F 17% 29.90 in 10.0 mi WNW 13.8 mph - N/A   Clear
2:53 PM 80.1 °F 28.9 °F 15% 29.89 in 10.0 mi WNW 15.0 mph 24.2 mph N/A   Clear
3:53 PM 79.0 °F 28.9 °F 16% 29.89 in 10.0 mi West 18.4 mph 26.5 mph N/A   Clear
4:53 PM 79.0 °F 27.0 °F 15% 29.88 in 10.0 mi WNW 15.0 mph 26.5 mph N/A   Clear
5:53 PM 78.1 °F 27.0 °F 15% 29.88 in 10.0 mi WNW 15.0 mph - N/A   Clear
6:53 PM 75.9 °F 28.9 °F 18% 29.89 in 10.0 mi NW 10.4 mph - N/A   Clear
7:53 PM 69.1 °F 30.0 °F 23% 29.89 in 10.0 mi NNW 3.5 mph - N/A   Clear
8:53 PM 66.9 °F 30.0 °F 25% 29.90 in 10.0 mi North 3.5 mph - N/A   Clear
9:53 PM 59.0 °F 30.0 °F 33% 29.90 in 10.0 mi NE 3.5 mph - N/A   Clear
10:53 PM 55.9 °F 30.0 °F 37% 29.90 in 10.0 mi North 5.8 mph - N/A   Clear
11:53 PM 55.0 °F 30.0 °F 38% 29.90 in 10.0 mi South 4.6 mph - N/A   Clear